Edenton, NC

1:14 PM EDT on April 28, 2017 (GMT -0400)
Northeastern Regional

Weather History for KEDE - July, 2013

Change the Weather History Date:

Thursday, July 4, 2013

  Actual Average Record
Temperature  
Mean Temperature 81 °F -  
Max Temperature 87 °F 88 °F 98 °F (2002)
Min Temperature 75 °F 70 °F 56 °F (1938)
Cooling Degree Days 16    
Growing Degree Days 31 (Base 50)    
Moisture  
Dew Point 73 °F    
Average Humidity 80    
Maximum Humidity 100    
Minimum Humidity 55    
Precipitation  
Precipitation 0.00 in - - ()
Sea Level Pressure  
Sea Level Pressure 30.28 in    
Wind  
Wind Speed 7 mph (South)    
Max Wind Speed 14 mph    
Max Gust Speed 18 mph    
Visibility 10 miles    
Events      
Averages and records for this station are not official NWS values.
T = Trace of Precipitation, MM = Missing Value Source: NWS Daily Summary

Daily Weather History Graph

Daily Weather History Graph

Search for Another Location

Airport or City:

Trip Planner

Search our weather history database for the weather conditions in past years. The results will help you decide how hot, cold, wet, or windy it might be!

Date:

Astronomy

Jul. 04, 2013 Rise Set
Actual Time 5:54 AM EDT 8:26 PM EDT
Civil Twilight 5:24 AM EDT 8:56 PM EDT
Nautical Twilight 4:47 AM EDT 9:33 PM EDT
Astronomical Twilight 4:06 AM EDT 10:14 PM EDT
Moon 3:07 AM EDT (7/4) 5:31 PM EDT (7/4)
Length of Visible Light 15h 32m
Length of Day
14h 32m
Waning Crescent, 11% of the Moon is Illuminated
Jul 4
Waning Crescent
Jul 8
New
Jul 15
First Quarter
Jul 22
Full
Jul 29
Last Quarter

Hourly Weather History & Observations

Time (EDT) Temp. Heat Index Dew Point Humidity Pressure Visibility Wind Dir Wind Speed Gust Speed Precip Events Conditions
12:15 AM 77.2 °F - 76.1 °F 96% 30.29 in 10.0 mi South 6.9 mph - N/A   Clear
12:35 AM 77.0 °F - 76.1 °F 97% 30.29 in 10.0 mi South 8.1 mph - N/A   Clear
12:55 AM 77.0 °F - 76.1 °F 97% 30.29 in 10.0 mi South 6.9 mph - N/A   Clear
1:15 AM 77.2 °F - 76.1 °F 96% 30.29 in 10.0 mi South 6.9 mph - N/A   Clear
1:35 AM 77.0 °F - 76.1 °F 97% 30.29 in 10.0 mi South 8.1 mph - N/A   Clear
1:55 AM 77.0 °F - 76.3 °F 98% 30.29 in 10.0 mi South 6.9 mph - N/A   Clear
2:15 AM 76.5 °F - 76.5 °F 100% 30.28 in 10.0 mi South 4.6 mph - N/A   Clear
2:35 AM 76.5 °F - 76.5 °F 100% 30.28 in 10.0 mi South 4.6 mph - N/A   Clear
2:55 AM 76.5 °F - 76.5 °F 100% 30.28 in 10.0 mi South 6.9 mph - N/A   Clear
3:15 AM 76.5 °F - 76.5 °F 100% 30.28 in 10.0 mi South 5.8 mph - N/A   Clear
3:35 AM 76.1 °F - 76.1 °F 100% 30.27 in 10.0 mi South 4.6 mph - N/A   Clear
3:55 AM 76.3 °F - 76.3 °F 100% 30.27 in 10.0 mi South 4.6 mph - N/A   Clear
4:15 AM 76.1 °F - 76.1 °F 100% 30.27 in 10.0 mi South 5.8 mph - N/A   Clear
4:35 AM 75.7 °F - 75.7 °F 100% 30.28 in 10.0 mi South 3.5 mph - N/A   Clear
4:55 AM 75.6 °F - 75.6 °F 100% 30.28 in 10.0 mi South 3.5 mph - N/A   Clear
5:15 AM 75.4 °F - 75.4 °F 100% 30.28 in 10.0 mi SSE 3.5 mph - N/A   Clear
5:35 AM 75.4 °F - 75.4 °F 100% 30.28 in 10.0 mi South 5.8 mph - N/A   Clear
5:55 AM 76.1 °F - 76.1 °F 100% 30.29 in 10.0 mi South 4.6 mph - N/A   Clear
6:15 AM 75.9 °F - 75.9 °F 100% 30.29 in 10.0 mi South 4.6 mph - N/A   Clear
6:35 AM 76.3 °F - 76.3 °F 100% 30.29 in 10.0 mi South 4.6 mph - N/A   Clear
6:55 AM 77.0 °F - 76.6 °F 99% 30.30 in 10.0 mi SSW 5.8 mph - N/A   Clear
7:15 AM 77.5 °F - 76.3 °F 96% 30.30 in 10.0 mi South 5.8 mph - N/A   Clear
7:35 AM 77.9 °F - 77.0 °F 97% 30.31 in 10.0 mi South 5.8 mph - N/A   Clear
7:55 AM 78.4 °F - 77.4 °F 96% 30.31 in 10.0 mi SSW 4.6 mph - N/A   Clear
8:15 AM 79.0 °F - 77.4 °F 95% 30.31 in 10.0 mi South 5.8 mph - N/A   Clear
8:35 AM 79.5 °F - 77.2 °F 93% 30.31 in 10.0 mi South 6.9 mph - N/A   Clear
8:55 AM 80.1 °F 86.0 °F 77.4 °F 91% 30.32 in 10.0 mi South 6.9 mph - N/A   Clear
9:15 AM 80.8 °F 87.1 °F 76.1 °F 86% 30.32 in 10.0 mi SSW 8.1 mph - N/A   Clear
9:35 AM 81.0 °F 86.9 °F 75.4 °F 83% 30.32 in 10.0 mi South 5.8 mph - N/A   Clear
9:55 AM 81.9 °F 88.0 °F 74.5 °F 78% 30.31 in 10.0 mi SSW 5.8 mph - N/A   Clear
10:15 AM 80.6 °F 85.2 °F 73.0 °F 78% 30.31 in 10.0 mi SSW 3.5 mph - N/A   Scattered Clouds
10:35 AM 81.7 °F 86.5 °F 72.3 °F 73% 30.31 in 10.0 mi SSW 4.6 mph - N/A   Scattered Clouds
10:55 AM 83.5 °F 89.1 °F 72.3 °F 69% 30.31 in 10.0 mi SW 4.6 mph - N/A   Clear
11:15 AM 84.2 °F 89.6 °F 71.8 °F 66% 30.31 in 10.0 mi South 9.2 mph - N/A   Clear
11:35 AM 84.7 °F 89.4 °F 70.3 °F 62% 30.30 in 10.0 mi SSW 10.4 mph - N/A   Clear
11:55 AM 84.9 °F 90.1 °F 71.2 °F 63% 30.30 in 10.0 mi South 6.9 mph - N/A   Clear
12:15 PM 85.5 °F 88.8 °F 68.2 °F 56% 30.30 in 10.0 mi SSW 9.2 mph - N/A   Clear
12:35 PM 86.0 °F 89.7 °F 68.9 °F 56% 30.30 in 10.0 mi South 8.1 mph - N/A   Clear
12:55 PM 86.5 °F 90.3 °F 68.5 °F 55% 30.30 in 10.0 mi South 6.9 mph - N/A   Clear
1:15 PM 86.2 °F 89.7 °F 68.4 °F 55% 30.29 in 10.0 mi SSW 6.9 mph - N/A   Clear
1:35 PM 87.1 °F 91.6 °F 69.6 °F 56% 30.29 in 10.0 mi South 8.1 mph - N/A   Clear
1:55 PM 87.3 °F 92.8 °F 70.9 °F 58% 30.29 in 10.0 mi South 3.5 mph - N/A   Clear
2:15 PM 87.3 °F 92.4 °F 70.5 °F 57% 30.28 in 10.0 mi SSE 9.2 mph - N/A   Clear
2:35 PM 87.6 °F 93.5 °F 71.1 °F 58% 30.27 in 10.0 mi South 11.5 mph - N/A   Clear
2:55 PM 87.3 °F 92.4 °F 70.5 °F 57% 30.27 in 10.0 mi South 11.5 mph - N/A   Clear
3:15 PM 87.4 °F 93.1 °F 71.2 °F 58% 30.26 in 10.0 mi SSE 9.2 mph - N/A   Clear
3:35 PM 87.8 °F 93.4 °F 70.9 °F 57% 30.25 in 10.0 mi South 8.1 mph - N/A   Clear
3:55 PM 87.3 °F 92.0 °F 69.6 °F 56% 30.25 in 10.0 mi South 10.4 mph - N/A   Clear
4:15 PM 86.7 °F 92.9 °F 71.8 °F 61% 30.25 in 10.0 mi SSE 10.4 mph 17.3 mph N/A   Clear
4:35 PM 86.9 °F 93.7 °F 72.7 °F 62% 30.25 in 10.0 mi South 9.2 mph 16.1 mph N/A   Clear
4:55 PM 85.6 °F 92.6 °F 73.0 °F 66% 30.25 in 10.0 mi South 10.4 mph - N/A   Clear
5:15 PM 86.2 °F 93.4 °F 73.2 °F 65% 30.24 in 10.0 mi SSE 13.8 mph 18.4 mph N/A   Clear
5:35 PM 85.5 °F 92.2 °F 72.9 °F 66% 30.24 in 10.0 mi South 12.7 mph 17.3 mph N/A   Clear
5:55 PM 85.5 °F 92.6 °F 73.2 °F 67% 30.24 in 10.0 mi South 10.4 mph 16.1 mph N/A   Clear
6:15 PM 85.1 °F 91.1 °F 72.1 °F 65% 30.24 in 10.0 mi South 11.5 mph - N/A   Clear
6:35 PM 84.2 °F 89.0 °F 70.7 °F 64% 30.24 in 10.0 mi South 10.4 mph - N/A   Clear
6:55 PM 83.8 °F 88.6 °F 71.1 °F 65% 30.24 in 10.0 mi South 10.4 mph 17.3 mph N/A   Clear
7:15 PM 83.1 °F 87.6 °F 70.7 °F 66% 30.24 in 10.0 mi South 12.7 mph - N/A   Clear
7:35 PM 82.2 °F 86.6 °F 71.1 °F 69% 30.24 in 10.0 mi South 11.5 mph - N/A   Clear
7:55 PM 81.5 °F 85.3 °F 70.3 °F 69% 30.25 in 10.0 mi South 12.7 mph 17.3 mph N/A   Clear
8:15 PM 80.6 °F 84.1 °F 70.5 °F 71% 30.25 in 10.0 mi South 12.7 mph 17.3 mph N/A   Clear
8:35 PM 79.7 °F - 70.7 °F 74% 30.25 in 10.0 mi South 10.4 mph - N/A   Clear
8:55 PM 79.3 °F - 70.2 °F 73% 30.26 in 10.0 mi South 9.2 mph - N/A   Clear
9:15 PM 78.8 °F - 70.7 °F 76% 30.27 in 10.0 mi South 9.2 mph - N/A   Clear
9:35 PM 78.4 °F - 71.1 °F 78% 30.27 in 10.0 mi South 9.2 mph - N/A   Clear
9:55 PM 78.3 °F - 72.0 °F 81% 30.28 in 10.0 mi South 8.1 mph - N/A   Clear
10:15 PM 78.3 °F - 72.7 °F 83% 30.29 in 10.0 mi South 9.2 mph - N/A   Clear
10:35 PM 78.1 °F - 73.2 °F 85% 30.28 in 10.0 mi South 8.1 mph - N/A   Clear
10:55 PM 77.9 °F - 73.4 °F 86% 30.28 in 10.0 mi South 8.1 mph - N/A   Clear
11:15 PM 77.9 °F - 74.3 °F 89% 30.28 in 10.0 mi South 6.9 mph - N/A   Clear
11:35 PM 77.7 °F - 74.7 °F 90% 30.28 in 10.0 mi South 9.2 mph - N/A   Clear
11:55 PM 77.4 °F - 74.7 °F 91% 30.29 in 10.0 mi South 8.1 mph - N/A   Clear